Galax, VA

3:47 PM EDT on September 24, 2017 (GMT -0400)
Twin County

Weather History for KHLX - January, 2012

Change the Weather History Date:

Tuesday, January 31, 2012

  Actual Average (KBLF) Record (KBLF)
Temperature  
Mean Temperature 50 °F -  
Max Temperature 64 °F 41 °F 71 °F (2002)
Min Temperature 37 °F 24 °F -4 °F (1966)
Degree Days  
Heating Degree Days 14    
Moisture  
Dew Point 22 °F    
Average Humidity 35    
Maximum Humidity 52    
Minimum Humidity 16    
Precipitation  
Precipitation 0.00 in - - ()
Sea Level Pressure  
Sea Level Pressure 30.29 in    
Wind  
Wind Speed 7 mph (SW)    
Max Wind Speed 16 mph    
Max Gust Speed 22 mph    
Visibility 10 miles    
Events      
Averages and records for this station are not official NWS values.
T = Trace of Precipitation, MM = Missing Value Source: NWS Daily Summary

Daily Weather History Graph

Daily Weather History Graph

Search for Another Location

Airport or City:

Trip Planner

Search our weather history database for the weather conditions in past years. The results will help you decide how hot, cold, wet, or windy it might be!

Date:

Astronomy

Jan. 31, 2012 Rise Set
Actual Time 7:26 AM EST 5:47 PM EST
Civil Twilight 6:59 AM EST 6:14 PM EST
Nautical Twilight 6:28 AM EST 6:45 PM EST
Astronomical Twilight 5:57 AM EST 7:16 PM EST
Moon 11:37 AM EST (1/31) 1:12 AM EST (1/31)
Length of Visible Light 11h 15m
Length of Day
10h 20m
First Quarter, 55% of the Moon is Illuminated
Jan 31
First Quarter
Feb 7
Full
Feb 14
Last Quarter
Feb 21
New
Feb 29
First Quarter

Hourly Weather History & Observations

Time (EST) Temp. Windchill Dew Point Humidity Pressure Visibility Wind Dir Wind Speed Gust Speed Precip Events Conditions
12:15 AM 42.8 °F 38.6 °F 19.4 °F 39% 30.31 in 10.0 mi SSW 6.9 mph - N/A   Clear
12:35 AM 42.8 °F 37.5 °F 19.4 °F 39% 30.31 in 10.0 mi SSW 9.2 mph - N/A   Clear
12:55 AM 42.8 °F 37.5 °F 19.4 °F 39% 30.31 in 10.0 mi SSW 9.2 mph - N/A   Clear
1:15 AM 42.8 °F 41.1 °F 19.4 °F 39% 30.31 in 10.0 mi SW 3.5 mph - N/A   Clear
1:35 AM 41.0 °F 38.0 °F 19.4 °F 42% 30.31 in 10.0 mi SW 4.6 mph - N/A   Clear
1:55 AM 41.0 °F 38.0 °F 19.4 °F 42% 30.31 in 10.0 mi SSW 4.6 mph - N/A   Clear
2:15 AM 41.0 °F 36.4 °F 19.4 °F 42% 30.30 in 10.0 mi SSW 6.9 mph - N/A   Clear
2:35 AM 41.0 °F 36.4 °F 19.4 °F 42% 30.31 in 10.0 mi SSW 6.9 mph - N/A   Clear
2:55 AM 41.0 °F 37.1 °F 19.4 °F 42% 30.30 in 10.0 mi South 5.8 mph - N/A   Clear
3:15 AM 39.2 °F 34.2 °F 21.2 °F 49% 30.30 in 10.0 mi SSW 6.9 mph - N/A   Clear
3:35 AM 39.2 °F 35.0 °F 21.2 °F 49% 30.30 in 10.0 mi SSW 5.8 mph - N/A   Clear
3:55 AM 37.4 °F 30.8 °F 21.2 °F 52% 30.29 in 10.0 mi SSW 9.2 mph - N/A   Clear
4:15 AM 39.2 °F 33.6 °F 21.2 °F 49% 30.30 in 10.0 mi SSW 8.1 mph - N/A   Clear
4:35 AM 39.2 °F 34.2 °F 21.2 °F 49% 30.30 in 10.0 mi SSW 6.9 mph - N/A   Clear
4:55 AM 41.0 °F 37.1 °F 21.2 °F 45% 30.30 in 10.0 mi SSW 5.8 mph - N/A   Clear
5:15 AM 39.2 °F - 21.2 °F 49% 30.30 in 10.0 mi Calm Calm - N/A   Clear
5:35 AM 39.2 °F 37.0 °F 21.2 °F 49% 30.30 in 10.0 mi WSW 3.5 mph - N/A   Clear
5:55 AM 39.2 °F 35.0 °F 21.2 °F 49% 30.30 in 10.0 mi SW 5.8 mph - N/A   Clear
6:15 AM 39.2 °F 35.0 °F 21.2 °F 49% 30.31 in 10.0 mi SW 5.8 mph - N/A   Clear
6:35 AM 39.2 °F - 21.2 °F 49% 30.31 in 10.0 mi Calm Calm - N/A   Clear
7:15 AM 39.2 °F 33.6 °F 21.2 °F 49% 30.32 in 10.0 mi SSW 8.1 mph - N/A   Clear
7:35 AM 42.8 °F 37.5 °F 19.4 °F 39% 30.33 in 10.0 mi SW 9.2 mph - N/A   Clear
7:55 AM 42.8 °F 38.6 °F 19.4 °F 39% 30.33 in 10.0 mi SW 6.9 mph - N/A   Clear
8:15 AM 44.6 °F 40.7 °F 19.4 °F 37% 30.33 in 10.0 mi SW 6.9 mph - N/A   Clear
8:35 AM 44.6 °F 42.2 °F 19.4 °F 37% 30.34 in 10.0 mi SSW 4.6 mph - N/A   Clear
9:15 AM 46.4 °F 42.9 °F 19.4 °F 34% 30.35 in 10.0 mi SSW 6.9 mph - N/A   Clear
9:35 AM 46.4 °F 44.3 °F 19.4 °F 34% 30.35 in 10.0 mi SSW 4.6 mph - N/A   Clear
10:15 AM 51.8 °F - 19.4 °F 28% 30.36 in 10.0 mi SW 9.2 mph - N/A   Clear
10:35 AM 51.8 °F - 19.4 °F 28% 30.35 in 10.0 mi South 6.9 mph - N/A   Clear
10:55 AM 53.6 °F - 19.4 °F 26% 30.35 in 10.0 mi WSW 5.8 mph - N/A   Clear
11:15 AM 53.6 °F - 19.4 °F 26% 30.34 in 10.0 mi SSW 5.8 mph - N/A   Clear
11:35 AM 55.4 °F - 21.2 °F 26% 30.34 in 10.0 mi SW 3.5 mph - N/A   Clear
11:55 AM 57.2 °F - 21.2 °F 25% 30.33 in 10.0 mi WSW 9.2 mph 16.1 mph N/A   Clear
12:15 PM 57.2 °F - 21.2 °F 25% 30.32 in 10.0 mi WNW 8.1 mph - N/A   Clear
12:55 PM 60.8 °F - 21.2 °F 22% 30.29 in 10.0 mi West 6.9 mph - N/A   Clear
1:15 PM 62.6 °F - 19.4 °F 19% 30.28 in 10.0 mi West 9.2 mph - N/A   Clear
1:35 PM 62.6 °F - 17.6 °F 18% 30.27 in 10.0 mi West 10.4 mph 19.6 mph N/A   Clear
1:55 PM 62.6 °F - 15.8 °F 16% 30.27 in 10.0 mi WSW 15.0 mph 21.9 mph N/A   Clear
2:15 PM 62.6 °F - 19.4 °F 19% 30.25 in 10.0 mi WSW 12.7 mph 17.3 mph N/A   Clear
2:35 PM 64.4 °F - 19.4 °F 18% 30.24 in 10.0 mi West 6.9 mph - N/A   Clear
2:55 PM 62.6 °F - 17.6 °F 18% 30.24 in 10.0 mi SW 12.7 mph 20.7 mph N/A   Clear
3:15 PM 62.6 °F - 19.4 °F 19% 30.24 in 10.0 mi SW 11.5 mph - N/A   Clear
3:35 PM 62.6 °F - 19.4 °F 19% 30.24 in 10.0 mi SW 13.8 mph 19.6 mph N/A   Clear
3:55 PM 62.6 °F - 19.4 °F 19% 30.25 in 10.0 mi SW 12.7 mph 17.3 mph N/A   Clear
4:15 PM 62.6 °F - 19.4 °F 19% 30.25 in 10.0 mi SSW 16.1 mph 21.9 mph N/A   Clear
4:35 PM 62.6 °F - 21.2 °F 20% 30.25 in 10.0 mi SW 15.0 mph 21.9 mph N/A   Clear
4:55 PM 60.8 °F - 23.0 °F 23% 30.25 in 10.0 mi SSW 12.7 mph - N/A   Scattered Clouds
5:15 PM 60.8 °F - 24.8 °F 25% 30.25 in 10.0 mi SW 11.5 mph 19.6 mph N/A   Scattered Clouds
5:35 PM 60.8 °F - 24.8 °F 25% 30.25 in 10.0 mi WSW 12.7 mph 21.9 mph N/A   Mostly Cloudy
5:55 PM 59.0 °F - 24.8 °F 27% 30.25 in 10.0 mi SW 9.2 mph 17.3 mph N/A   Mostly Cloudy
6:15 PM 57.2 °F - 24.8 °F 29% 30.25 in 10.0 mi SSW 8.1 mph - N/A   Scattered Clouds
6:35 PM 55.4 °F - 28.4 °F 36% 30.25 in 10.0 mi South 5.8 mph - N/A   Scattered Clouds
6:55 PM 55.4 °F - 30.2 °F 38% 30.25 in 10.0 mi South 5.8 mph - N/A   Clear
7:15 PM 55.4 °F - 30.2 °F 38% 30.26 in 10.0 mi South 6.9 mph - N/A   Clear
7:35 PM 53.6 °F - 30.2 °F 41% 30.26 in 10.0 mi South 8.1 mph - N/A   Clear
8:15 PM 53.6 °F - 28.4 °F 38% 30.25 in 10.0 mi South 5.8 mph - N/A   Clear
8:35 PM 51.8 °F - 28.4 °F 41% 30.25 in 10.0 mi South 4.6 mph - N/A   Clear
8:55 PM 51.8 °F - 28.4 °F 41% 30.25 in 10.0 mi South 3.5 mph - N/A   Clear
9:15 PM 51.8 °F - 28.4 °F 41% 30.25 in 10.0 mi South 6.9 mph - N/A   Clear
9:35 PM 50.0 °F - 28.4 °F 43% 30.25 in 10.0 mi South 5.8 mph - N/A   Clear
9:55 PM 50.0 °F - 28.4 °F 43% 30.25 in 10.0 mi South 5.8 mph - N/A   Clear
10:15 PM 48.2 °F - 28.4 °F 46% 30.25 in 10.0 mi South 8.1 mph - N/A   Clear
10:35 PM 48.2 °F - 28.4 °F 46% 30.24 in 10.0 mi South 8.1 mph - N/A   Clear
10:55 PM 48.2 °F - 28.4 °F 46% 30.23 in 10.0 mi South 8.1 mph - N/A   Clear
11:15 PM 48.2 °F - 28.4 °F 46% 30.24 in 10.0 mi South 6.9 mph - N/A   Clear
11:35 PM 48.2 °F - 28.4 °F 46% 30.23 in 10.0 mi South 5.8 mph - N/A   Clear